When you browse on this site, cookies collect data to enhance your experience and personalize the content and advertising you see.
Visit our Privacy Policy to learn more. By continuing to use the site, you agree to this use of cookies and data.
  • In Austria
  • List of Countries
  • For 7 days
  • Water Temperature
  • Weather Map
  • News
  • Weather Widgets
  • user-avatar
    Login

    Hourly Weather Barisal

    Today, 20 February, Thursday

    Time Temperature Precipitation Wind Pressure Humidity
    00:00 +20°C° 0 mm 2 mps 761 mmHg 75%
    01:00 +20°C° 0 mm 2 mps 761 mmHg 75%
    02:00 +19°C° 0 mm 2 mps 761 mmHg 75%
    03:00 +19°C° 0 mm 2 mps 760 mmHg 75%
    04:00 +19°C° 0 mm 2 mps 760 mmHg 73%
    05:00 +20°C° 0 mm 1 mps 760 mmHg 71%
    06:00 +20°C° 0 mm 1 mps 761 mmHg 77%
    07:00 +22°C° 0 mm 1 mps 761 mmHg 69%
    08:00 +24°C° 0 mm 1 mps 762 mmHg 60%
    09:00 +26°C° 0 mm 1 mps 762 mmHg 52%
    10:00 +28°C° 0 mm 1 mps 762 mmHg 45%
    11:00 +28°C° 0 mm 0 mps 762 mmHg 37%
    12:00 +30°C° 0 mm 0 mps 762 mmHg 28%
    13:00 +32°C° 0 mm 1 mps 761 mmHg 27%
    14:00 +32°C° 0 mm 1 mps 761 mmHg 25%
    15:00 +32°C° 0 mm 1 mps 760 mmHg 24%
    16:00 +30°C° 0 mm 2 mps 760 mmHg 32%
    17:00 +28°C° 0 mm 2 mps 760 mmHg 39%
    18:00 +26°C° 0 mm 3 mps 760 mmHg 47%
    19:00 +25°C° 0 mm 3 mps 760 mmHg 53%
    20:00 +24°C° 0 mm 2 mps 761 mmHg 59%
    21:00 +23°C° 0 mm 2 mps 761 mmHg 65%
    22:00 +21°C° 0 mm 2 mps 761 mmHg 65%
    23:00 +21°C° 0 mm 2 mps 761 mmHg 65%

    Tomorrow, 21 February, Friday

    Time Temperature Precipitation Wind Pressure Humidity
    00:00 +21°C° 0 mm 2 mps 761 mmHg 64%
    01:00 +20°C° 0 mm 2 mps 761 mmHg 63%
    02:00 +20°C° 0 mm 2 mps 761 mmHg 62%
    03:00 +21°C° 0 mm 1 mps 760 mmHg 61%
    04:00 +20°C° 0 mm 1 mps 761 mmHg 62%
    05:00 +20°C° 0 mm 1 mps 761 mmHg 63%
    06:00 +19°C° 0 mm 1 mps 761 mmHg 64%
    07:00 +22°C° 0 mm 1 mps 762 mmHg 58%
    08:00 +24°C° 0 mm 1 mps 763 mmHg 52%
    09:00 +26°C° 0 mm 1 mps 763 mmHg 45%
    10:00 +28°C° 0 mm 1 mps 763 mmHg 39%
    11:00 +30°C° 0 mm 1 mps 763 mmHg 32%
    12:00 +32°C° 0 mm 2 mps 763 mmHg 26%
    19:00 +26°C° 0 mm 2 mps 761 mmHg 39%
    20:00 +25°C° 0 mm 2 mps 762 mmHg 44%
    21:00 +23°C° 0 mm 2 mps 762 mmHg 49%
    22:00 +23°C° 0 mm 2 mps 762 mmHg 51%
    23:00 +21°C° 0 mm 2 mps 762 mmHg 52%

    Day after tomorrow, 22 February, Saturday

    Time Temperature Precipitation Wind Pressure Humidity
    00:00 +21°C° 0 mm 2 mps 762 mmHg 54%
    01:00 +20°C° 0 mm 2 mps 762 mmHg 56%
    02:00 +21°C° 0 mm 1 mps 762 mmHg 57%
    03:00 +20°C° 0 mm 1 mps 762 mmHg 58%
    04:00 +20°C° 0 mm 1 mps 762 mmHg 58%
    05:00 +20°C° 0 mm 1 mps 762 mmHg 57%
    06:00 +17°C° 0 mm 0 mps 762 mmHg 56%
    07:00 +22°C° 0 mm 1 mps 762 mmHg 48%
    08:00 +24°C° 0 mm 1 mps 763 mmHg 40%
    09:00 +27°C° 0 mm 1 mps 764 mmHg 32%
    10:00 +29°C° 0 mm 1 mps 763 mmHg 28%
    11:00 +31°C° 0 mm 1 mps 763 mmHg 25%
    12:00 +34°C° 0 mm 2 mps 762 mmHg 21%
    13:00 +35°C° 0 mm 2 mps 761 mmHg 20%
    14:00 +35°C° 0 mm 2 mps 761 mmHg 19%
    15:00 +36°C° 0 mm 2 mps 760 mmHg 18%
    16:00 +34°C° 0 mm 2 mps 760 mmHg 23%
    17:00 +30°C° 0 mm 2 mps 760 mmHg 27%
    18:00 +28°C° 0 mm 1 mps 760 mmHg 32%
    19:00 +27°C° 0 mm 2 mps 760 mmHg 37%
    20:00 +25°C° 0 mm 2 mps 761 mmHg 42%
    21:00 +24°C° 0 mm 2 mps 761 mmHg 48%
    22:00 +23°C° 0 mm 2 mps 761 mmHg 50%
    23:00 +23°C° 0 mm 2 mps 761 mmHg 52%

    23 February, Sunday

    Time Temperature Precipitation Wind Pressure Humidity
    00:00 +23°C° 0 mm 2 mps 761 mmHg 54%
    01:00 +21°C° 0 mm 2 mps 761 mmHg 55%
    02:00 +21°C° 0 mm 2 mps 761 mmHg 56%
    03:00 +21°C° 0 mm 2 mps 760 mmHg 57%
    04:00 +20°C° 0 mm 2 mps 760 mmHg 57%
    05:00 +21°C° 0 mm 1 mps 760 mmHg 57%
    06:00 +21°C° 0 mm 1 mps 760 mmHg 57%
    07:00 +23°C° 0 mm 1 mps 761 mmHg 50%
    08:00 +25°C° 0 mm 2 mps 762 mmHg 44%
    09:00 +28°C° 0 mm 2 mps 762 mmHg 37%
    10:00 +30°C° 0 mm 1 mps 762 mmHg 32%
    11:00 +33°C° 0 mm 1 mps 762 mmHg 28%
    12:00 +33°C° 0 mm 0 mps 761 mmHg 23%
    13:00 +35°C° 0 mm 1 mps 761 mmHg 23%
    14:00 +35°C° 0 mm 1 mps 760 mmHg 22%
    15:00 +36°C° 0 mm 2 mps 759 mmHg 21%
    16:00 +34°C° 0 mm 2 mps 759 mmHg 27%
    17:00 +31°C° 0 mm 2 mps 758 mmHg 32%
    18:00 +29°C° 0 mm 3 mps 758 mmHg 37%
    19:00 +27°C° 0 mm 3 mps 759 mmHg 42%
    20:00 +26°C° 0 mm 2 mps 759 mmHg 46%
    21:00 +25°C° 0 mm 2 mps 759 mmHg 50%
    22:00 +24°C° 0 mm 2 mps 759 mmHg 51%
    23:00 +24°C° 0 mm 2 mps 759 mmHg 51%

    24 February, Monday

    Time Temperature Precipitation Wind Pressure Humidity
    00:00 +24°C° 0 mm 2 mps 759 mmHg 52%
    01:00 +23°C° 0 mm 2 mps 759 mmHg 52%
    02:00 +23°C° 0 mm 2 mps 759 mmHg 52%
    03:00 +21°C° 0 mm 2 mps 759 mmHg 53%
    04:00 +22°C° 0 mm 1 mps 759 mmHg 54%
    05:00 +21°C° 0 mm 1 mps 759 mmHg 55%
    06:00 +19°C° 0 mm 0 mps 759 mmHg 56%
    07:00 +23°C° 0 mm 1 mps 759 mmHg 50%
    08:00 +25°C° 0 mm 1 mps 760 mmHg 44%
    09:00 +27°C° 0 mm 2 mps 761 mmHg 39%
    10:00 +30°C° 0 mm 1 mps 760 mmHg 33%
    11:00 +32°C° 0 mm 1 mps 760 mmHg 27%
    12:00 +34°C° 0 mm 1 mps 760 mmHg 21%
    13:00 +35°C° 0 mm 1 mps 759 mmHg 21%
    14:00 +36°C° 0 mm 2 mps 758 mmHg 21%
    15:00 +36°C° 0 mm 2 mps 757 mmHg 21%
    16:00 +34°C° 0 mm 3 mps 757 mmHg 27%
    17:00 +31°C° 0 mm 3 mps 757 mmHg 34%
    18:00 +28°C° 0 mm 4 mps 757 mmHg 40%
    19:00 +27°C° 0 mm 3 mps 757 mmHg 47%
    20:00 +26°C° 0 mm 3 mps 758 mmHg 54%
    21:00 +24°C° 0 mm 2 mps 758 mmHg 62%
    22:00 +24°C° 0 mm 2 mps 758 mmHg 63%
    23:00 +23°C° 0 mm 2 mps 758 mmHg 65%

    25 February, Tuesday

    Time Temperature Precipitation Wind Pressure Humidity
    00:00 +23°C° 0 mm 1 mps 758 mmHg 66%
    01:00 +22°C° 0 mm 1 mps 758 mmHg 68%
    02:00 +22°C° 0 mm 1 mps 757 mmHg 70%
    03:00 +19°C° 0 mm 0 mps 757 mmHg 72%
    04:00 +21°C° 0 mm 1 mps 757 mmHg 75%
    05:00 +21°C° 0 mm 1 mps 757 mmHg 77%
    06:00 +20°C° 0 mm 1 mps 757 mmHg 80%
    07:00 +23°C° 0 mm 2 mps 758 mmHg 72%
    08:00 +25°C° 0 mm 2 mps 759 mmHg 63%
    09:00 +27°C° 0 mm 2 mps 759 mmHg 55%
    10:00 +29°C° 0 mm 2 mps 759 mmHg 46%
    11:00 +31°C° 0 mm 2 mps 759 mmHg 37%
    12:00 +34°C° 0 mm 3 mps 758 mmHg 27%
    13:00 +35°C° 0 mm 3 mps 758 mmHg 26%
    14:00 +35°C° 0 mm 3 mps 757 mmHg 25%
    15:00 +35°C° 0 mm 3 mps 757 mmHg 24%
    16:00 +33°C° 0 mm 3 mps 757 mmHg 33%
    17:00 +30°C° 0 mm 4 mps 757 mmHg 42%
    18:00 +27°C° 0 mm 5 mps 757 mmHg 50%
    19:00 +26°C° 0 mm 4 mps 758 mmHg 53%
    20:00 +25°C° 0 mm 3 mps 758 mmHg 56%
    21:00 +24°C° 0 mm 2 mps 758 mmHg 60%
    22:00 +24°C° 0 mm 2 mps 758 mmHg 59%
    23:00 +24°C° 0 mm 2 mps 758 mmHg 58%
    Show more